星链-35353(STARLINK-35353)

导读 | 豆包AI

STARLINK-35353是美国太空探索技术公司SpaceX星链互联网卫星项目中的一员,于2025年9月19日发射升空,作为低轨卫星,它旨在为全球范围内用户提供高速低延迟的互联网接入服务,进一步扩充星链星座规模,推进星链项目全球覆盖的目标。

基本信息
目录编号:
65669
目录名称:
STARLINK-35353
国际标识:
2025-211T
轨道中心:
EARTH
卫星名称:
星链-35353
卫星全名:
星链-35353(STARLINK-35353)
卫星状态:
在轨 (已飞行222 天)
发射日期:
2025-09-19 UTC
国别 :
美国 (US)
星等 :
--
轨道信息
数据来源 国际轨道数据 AOE轨道数据
星历时间 2026-04-29T04:29:47+0800
10小时前
查看轨道信息
2026-04-22T23:00:00+0800
6天前
查看轨道信息
半长轴 6927.636km 6927.691km
偏心率 0.0001668 0.0001118
轨道倾角 97.560° 97.586°
近地点辐角 125.459° 147.785°
升交点赤经 163.540° 157.429°
平近点角 234.679° 310.247°
近地点 548.343km 548.779km
远地点 550.655km 550.329km
周期 95.639分钟 95.641分钟
每日圈数 15.056541 15.056362
详细信息
固有亮度:
5
最大亮度:
2.5
卫星平台:
Starlink V1.0
覆盖范围:
全球
运营商:
太空探索技术公司
运营商所在国:
美国
制造商(研发单位):
太空探索技术公司
制造商所在国:
美国
使用方式:
暂无
卫星简介
Starlink 计划是 SpaceX 推出的全球卫星互联网项目,通过发射低轨道卫星,为全球尤其是偏远地区提供高速、低延迟的互联网服务。自 2019 年起,Starlink 已部署数千颗卫星,旨在缩小全球数字鸿沟,推动互联网普及。该项目还为军事、航空等行业提供通信支持,带来广泛经济效益。
2D轨道图
3D轨道图
轨道高度分析图
轨道倾角分析图
轨道综合分析图
查看轨道综合分析图